sat.trackr.live / text

‹ back to catalog

STARLINK-4780

NORAD 53848 · 2022-114AG

PAYLOAD ACTIVE UNKNOWN

§ Identity

Operator
Country
US
Launch date
2022-09-19
Launch site
AFETR
Launch vehicle
Mass (kg)
RCS (m²)

Purposes: comms

External: N2YO · Heavens-Above · Gunter

§ Orbital elements

Epoch: 2026-05-25T04:27:15.338880Z

Period
95.44 min
Inclination
53.2148°
Eccentricity
0.0001283
Mean motion
15.08840902 rev/d
Perigee alt
538.9 km
Apogee alt
540.6 km
Semi-major
6,917.9 km
B*
5.7105e-5
RAAN
310.4507°
Arg perigee
88.3626°
Mean anomaly
271.7513°
Rev number
20,452

§ Raw data

STARLINK-47801 53848U 22114AG  26145.18559420  .00000621  00000+0  57105-4 0  99902 53848  53.2148 310.4507 0001283  88.3626 271.7513 15.08840902204526

JSON: /api/v1/satellites/53848 · /tle

For live sub-satellite position, see the globe view (requires WebGL).

§ Visibility from observer

Set your observer location to see the next 7 days of passes ≥ 10°. The values pass through the URL so the page stays shareable.

No JS? Fill the form by hand. The geolocation button needs JavaScript.